Location: Fort Worth, Tx
(32.7431°N, 97.3695°W)
Time: 13:24:57
(UTC-04:00)

Transit 2A - Pass Details

Date: 25 February 2024
Orbit: 596 x 956 km, 66.7° (Epoch: 20 April)

Event Time Altitude Azimuth Distance (km) Brightness Sun altitude
Rises 19:41:13 0° 178° (S) 2,932 9.1 -4.6°
Reaches altitude 10° 19:43:49 10° 166° (SSE) 1,986 8.1 -5.1°
Maximum altitude 19:47:30 26° 110° (ESE) 1,202 6.6 -5.9°
Drops below altitude 10° 19:51:05 10° 53° (NE) 1,934 7.6 -6.6°
Enters shadow 19:53:25 - 41° (NE) 2,777 8.5 -7.1°
